TimeEST,TemperatureF,Dew PointF,Humidity,Sea Level PressureIn,VisibilityMPH,Wind Direction,Wind SpeedMPH,Gust SpeedMPH,PrecipitationIn,Events,Conditions,WindDirDegrees,DateUTC
12:56 AM,28.0,19.9,72,30.32,9.0,SSW,6.9,-,N/A,,Scattered Clouds,200,2012-11-28 05:56:00
1:56 AM,25.0,21.0,85,30.33,7.0,SSW,5.8,-,N/A,,Scattered Clouds,210,2012-11-28 06:56:00
2:56 AM,25.0,19.9,81,30.33,7.0,SSW,5.8,-,N/A,,Partly Cloudy,210,2012-11-28 07:56:00
3:56 AM,25.0,19.9,81,30.33,6.0,SSW,4.6,-,N/A,,Haze,210,2012-11-28 08:56:00
4:56 AM,26.1,21.0,81,30.33,6.0,SSW,8.1,-,N/A,,Haze,210,2012-11-28 09:56:00
5:56 AM,24.1,19.0,81,30.36,6.0,SW,3.5,-,N/A,,Haze,230,2012-11-28 10:56:00
6:56 AM,26.1,21.9,84,30.36,6.0,SW,8.1,-,N/A,,Partly Cloudy,220,2012-11-28 11:56:00
7:56 AM,26.1,21.9,84,30.38,4.0,WSW,6.9,-,N/A,,Mostly Cloudy,240,2012-11-28 12:56:00
8:56 AM,28.0,23.0,81,30.39,5.0,WSW,6.9,-,N/A,,Haze,240,2012-11-28 13:56:00
9:56 AM,33.1,23.0,66,30.41,7.0,West,11.5,-,N/A,,Partly Cloudy,270,2012-11-28 14:56:00
10:56 AM,36.0,21.9,57,30.43,10.0,WNW,9.2,-,N/A,,Partly Cloudy,290,2012-11-28 15:56:00
11:56 AM,37.9,21.0,51,30.41,10.0,West,8.1,-,N/A,,Clear,280,2012-11-28 16:56:00
12:56 PM,39.0,19.9,46,30.40,10.0,West,8.1,-,N/A,,Clear,280,2012-11-28 17:56:00
1:56 PM,41.0,21.9,47,30.39,10.0,WNW,11.5,-,N/A,,Partly Cloudy,300,2012-11-28 18:56:00
2:56 PM,41.0,23.0,49,30.38,10.0,West,9.2,-,N/A,,Clear,260,2012-11-28 19:56:00
3:56 PM,41.0,24.1,51,30.38,10.0,West,12.7,-,N/A,,Clear,260,2012-11-28 20:56:00
4:56 PM,37.9,23.0,55,30.38,10.0,West,9.2,-,N/A,,Clear,270,2012-11-28 21:56:00
5:56 PM,32.0,23.0,69,30.39,10.0,West,6.9,-,N/A,,Clear,260,2012-11-28 22:56:00
6:56 PM,32.0,21.9,66,30.40,10.0,SW,5.8,-,N/A,,Clear,230,2012-11-28 23:56:00
7:56 PM,30.0,21.0,69,30.42,10.0,WSW,6.9,-,N/A,,Clear,240,2012-11-29 00:56:00
8:56 PM,32.0,21.9,66,30.42,10.0,WSW,6.9,-,N/A,,Clear,240,2012-11-29 01:56:00
9:56 PM,28.0,19.9,72,30.41,9.0,WSW,4.6,-,N/A,,Clear,250,2012-11-29 02:56:00
10:56 PM,28.9,21.0,72,30.41,9.0,SW,5.8,-,N/A,,Clear,230,2012-11-29 03:56:00
11:56 PM,28.0,21.0,75,30.40,9.0,SSW,4.6,-,N/A,,Clear,210,2012-11-29 04:56:00